Notices

What's New in latest Release from April 7th, 2021:

- Updated Glossary, including Speed of Maximum Gust, and Total Hourly Precipitation

- Updated national and regional climate services offices contacts and prices information

- Addition of station inventory lists for 1981-2010, 1971-2000, and 1961-1990 Normals.

If you haven't already, please take our survey and provide feedback about our website: https://eccc.sondage-survey.ca/f/LanguageSelection.aspx?s=442ca660-fcf1-47c0-95a9-59707d6fd709

Hourly Data Report for February 27, 2021

MIRAMICHI RCS
NEW BRUNSWICK
Current Station Operator: ECCC - MSC

47°00'34.000" N
65°27'54.000" W
33.00 m
8100989
71744
ACQ

Download Data

Hourly Data (February 2021)
Hourly Data Report for February 27, 2021
TIME
LST
Temp Definition
°C
Dew Point Definition
°C
Rel Hum Definition
%
Precip. Amount Definition
mm

Wind Dir Definition
10's deg

Wind Spd Definition
km/h
Visibility Definition
km
Stn Press Definition
kPa
Hmdx Definition


Wind Chill Definition


Weather Definition


00:00 -15.9 -20.7 67 LegendMM 24 4   102.53   -19 LegendNANA
01:00 -15.4 -20.2 67 LegendMM 23 6   102.42   -20 LegendNANA
02:00 -18.3 -22.2 71 LegendMM 26 6   102.45   -23 LegendNANA
03:00 -18.3 -22.2 72 LegendMM 27 10   102.58   -25 LegendNANA
04:00 -16.8 -20.9 70 LegendMM 28 6   102.59   -21 LegendNANA
05:00 -19.6 -22.3 79 LegendMM 22 1   102.59   -20 LegendNANA
06:00 -21.7 -25.2 73 LegendMM 19 3   102.55   -24 LegendNANA
07:00 -18.0 -21.3 75 LegendMM 23 7   102.56   -23 LegendNANA
08:00 -18.0 -21.0 78 LegendMM 25 5   102.55   -22 LegendNANA
09:00 -13.0 -18.9 61 LegendMM 29 6   102.51   -17 LegendNANA
10:00 -9.0 -17.6 50 LegendMM 26 5   102.40   -12 LegendNANA
11:00 -4.9 -14.9 45 LegendMM 23 17   102.30   -11 LegendNANA
12:00 -2.3 -10.9 52 LegendMM 22 26   102.20   -9 LegendNANA
13:00 -0.3 -7.9 56 LegendMM 22 23   102.08   -6 LegendNANA
14:00 1.9 -5.7 57 LegendMM 22 29   101.91     LegendNANA
15:00 2.8 -5.0 56 LegendMM 20 27   101.73     LegendNANA
16:00 3.0 -4.4 58 LegendMM 20 29   101.58     LegendNANA
17:00 2.6 -4.0 62 LegendMM 20 27   101.39     LegendNANA
18:00 1.6 -3.1 71 LegendMM 19 26   101.35     LegendNANA
19:00 -0.5 -1.2 95 LegendMM 18 15   101.28   -5 LegendNANA
20:00 -0.8 -1.3 96 LegendMM 14 12   101.05   -5 LegendNANA
21:00 -1.0 -1.5 96 LegendMM 11 12   100.81   -5 LegendNANA
22:00 -1.0 -1.5 97 LegendMM 9 8   100.63   -4 LegendNANA
23:00 -1.0 -1.5 97 LegendMM 6 5   100.44   -3 LegendNANA

Notes on Data Quality.

Legend

  • E = Estimated
  • M = Missing
  • NA = Not Available*
  • [empty] = Indicates an unobserved value
Date modified: